Location: Tuttlingen
(47.9853°N, 8.8165°E)
Time: 22:29:14
(UTC+01:00)

ISS - Visible Passes

Search period start: 25 February 2018 00:00
Search period end: 07 March 2018 00:00
Orbit: 403 x 406 km, 51.6° (Epoch: 26 February)

Date Brightness Start Highest point End Pass type
(mag) Time Alt. Az. Time Alt. Az. Time Alt. Az.
26 Feb -0.9 06:24:27 10° S 06:26:35 16° SE 06:28:44 10° E visible
28 Feb -2.1 06:15:22 10° SSW 06:18:19 32° SE 06:21:17 10° E visible
01 Mar -1.4 05:24:08 12° S 05:26:14 19° SE 05:28:40 10° E visible
02 Mar -0.8 04:34:18 12° SE 04:34:18 12° SE 04:35:24 10° ESE visible
02 Mar -3.4 06:06:58 11° SW 06:10:07 62° SSE 06:13:22 10° ENE visible
03 Mar -2.7 05:17:00 30° S 05:17:55 38° SE 05:20:59 10° ENE visible
04 Mar -1.3 04:26:55 19° ESE 04:26:55 19° ESE 04:28:26 10° E visible
04 Mar -3.8 05:59:34 17° WSW 06:01:59 77° NNW 06:05:16 10° ENE visible
05 Mar -3.9 05:09:24 66° SSW 05:09:40 72° SSE 05:12:57 10° ENE visible
06 Mar -1.3 04:19:09 22° E 04:19:09 22° E 04:20:34 10° ENE visible
06 Mar -3.4 05:51:47 19° W 05:53:53 52° NNW 05:57:06 10° ENE visible
